COSMOS 2251 DEB, 37496

Orbit data source: Space-Track

COSMOS 2251 DEB, 37496 is space debris in LEO originally from a launch on Wed, 16 Jun 1993 UTC launched from the Plesetsk Missile And Space Complex (PKMTR). The debris from Iridium 33, an American commercial communications satellite, has been tracked extensively since its accidental collision with the defunct Russian satellite Cosmos 2251 in 2009. This event, occurring at high speed in low Earth orbit (LEO), generated thousands of pieces of space debris, significantly increasing the risk of further collisions. The Iridium 33 debris cloud has impacted space traffic management and orbital debris mitigation strategies, making it a subject of ongoing study in space situational awareness.

Loading next visibility...
Identifier
37496, 1993-036BLZ
Orbit
LEO
Country
Flag of CISCIS
Related business
Manufacturer
Unknown
Mission
Spacecraft
Bus & Motor
Unknown
Mass
Unknown
Launch date (UTC)
1993-06-16 (33 years ago)
Launch vehicle
Unknown
Launch site
Plesetsk Missile And Space Complex (PKMTR)
Object type
Payload
Rocket body
Debris
Shape & HBR
Unknown shape, 0.1 m
Radar Cross Section
Small (<0.1 m²)

Expand to show TLE details & history
Last TLE update: 1 week ago

TLE from 1 week ago
0 COSMOS 2251 DEB
1 37496U 93036BLZ 26200.36249155  .00008884  00000-0  62935-3 0  9991
2 37496  73.9436 235.7464 0051901 199.5951 160.3244 15.03825383692936
Epoch: 2026-07-19T08:41Z
TLE epoch observation values (Epoch: 2026-07-19T08:41:59.269Z)
Latitude
-0.00012°
Longitude
168.08744°
Altitude
591.711 km
Speed
7.546 km/s
True Right ascension
15h 42m 59s
True Declination
0° 00' 00"
Sunlit
Object was in full shadow at epoch
Visualization orbit readout
Latitude
Unknown
Longitude
Unknown
Altitude
Unknown
Speed
Unknown
Apparent Right ascension
Unknown
Apparent Declination
Unknown
Sunlit
N/A
Visualization observer readout
Local Sidereal Time
00:03:03
Azimuth
Unknown
Elevation
Unknown
Doppler factor
Unknown
Orbital elements
Apogee altitude
588.643 km
Perigee altitude
516.7 km
Semi-major axis
6,930.808 km
Eccentricity
0.00519
Inclination
73.9436°
RAAN
235.7464°
Arg. of periapsis
199.5951°
True anomaly
160.52343°
Mean anomaly
160.3244°
Eccentric anomaly
160.42404°
Mean motion
3.76155 °/min
Orbital period
95.71 mins
BSTAR
0.00062935
Loading maneuver chart data...
Computing Atmospheric mass density...

Documentation

Showing up to 5 results
|